FW1203 Weather Reports


time (UTC)temp
C
wind
direction
speed
KPH
gust
KPH
rain 1hr
cm
rain 24hr
cm
rain mn
cm
humidity
%
barometer
mb
20260509161833 21 265 1.6 9.7 0.00 0.00 0.00 58 1002.5
20260509161332 21 256 1.6 9.7 0.00 0.00 0.00 59 1002.7
20260509160833 20 223 0.0 3.2 0.00 0.00 0.00 62 1002.6
20260509160333 20 220 0.0 4.8 0.00 0.00 0.00 62 1002.4
20260509155833 20 210 1.6 6.4 0.00 0.00 0.00 59 1002.4
20260509155333 20 201 1.6 6.4 0.00 0.00 0.00 60 1002.4
20260509154833 20 293 1.6 8.0 0.00 0.00 0.00 60 1002.3
20260509154333 20 230 1.6 8.0 0.00 0.00 0.00 60 1002.4
20260509153833 20 227 1.6 8.0 0.00 0.00 0.00 63 1002.4
20260509153332 20 244 0.0 8.0 0.00 0.00 0.00 63 1002.4
20260509152833 19 200 0.0 8.0 0.00 0.00 0.00 63 1002.4
20260509152333 19 283 1.6 11.3 0.00 0.00 0.00 64 1002.3
20260509151833 19 219 1.6 11.3 0.00 0.00 0.00 65 1002.4
20260509151333 19 242 1.6 4.8 0.00 0.00 0.00 65 1002.5
20260509150833 19 267 0.0 1.6 0.00 0.00 0.00 67 1002.4
20260509150333 19 263 0.0 6.4 0.00 0.00 0.00 67 1002.3
20260509145833 18 235 1.6 9.7 0.00 0.00 0.00 67 1002.3
20260509145333 18 208 1.6 9.7 0.00 0.00 0.00 67 1002.4
20260509144833 18 244 0.0 6.4 0.00 0.00 0.00 70 1002.3
20260509144333 18 208 0.0 6.4 0.00 0.00 0.00 72 1002.4
20260509143833 17 207 0.0 6.4 0.00 0.00 0.00 72 1002.3
20260509143333 17 281 0.0 9.7 0.00 0.00 0.00 73 1002.3
20260509142833 17 242 1.6 9.7 0.00 0.00 0.00 74 1002.3
20260509142333 17 0 0.0 0.0 0.00 0.00 0.00 74 1002.3
20260509141833 17 0 0.0 0.0 0.00 0.00 0.00 75 1002.3
20260509141333 16 0 0.0 0.0 0.00 0.00 0.00 76 1002.1
20260509140833 16 255 0.0 1.6 0.00 0.00 0.00 76 1002.2
20260509140333 16 255 0.0 3.2 0.00 0.00 0.00 74 1002.2
20260509135833 16 221 0.0 8.0 0.00 0.00 0.00 75 1002.1
20260509135333 16 220 1.6 9.7 0.00 0.00 0.00 75 1002.1
20260509134833 16 219 0.0 9.7 0.00 0.00 0.00 76 1002.1
20260509134333 16 254 0.0 6.4 0.00 0.00 0.00 77 1001.9
20260509133833 16 241 0.0 6.4 0.00 0.00 0.00 78 1002.0
20260509133333 15 218 0.0 4.8 0.00 0.00 0.00 79 1002.1
20260509132833 15 221 0.0 4.8 0.00 0.00 0.00 80 1002.2
20260509132333 15 253 1.6 4.8 0.00 0.00 0.00 80 1002.3
20260509131833 15 236 0.0 4.8 0.00 0.00 0.00 81 1002.3
20260509131333 15 269 0.0 6.4 0.00 0.00 0.00 82 1002.3
20260509130833 14 225 0.0 6.4 0.00 0.00 0.00 83 1002.3
20260509130333 14 293 0.0 3.2 0.00 0.00 0.00 84 1002.3
20260509125833 14 293 0.0 3.2 0.00 0.00 0.00 85 1002.4
20260509125333 13 342 0.0 1.6 0.00 0.00 0.00 85 1002.4
20260509124832 13 0 0.0 0.0 0.00 0.00 0.00 86 1002.3
20260509124333 13 269 0.0 8.0 0.00 0.00 0.00 87 1002.3
20260509123833 13 269 0.0 8.0 0.00 0.00 0.00 87 1002.4
20260509123333 13 0 0.0 0.0 0.00 0.00 0.00 87 1002.4
20260509122833 13 210 0.0 1.6 0.00 0.00 0.00 87 1002.4
20260509122333 12 210 0.0 8.0 0.00 0.00 0.00 87 1002.4
20260509121833 12 204 0.0 8.0 0.00 0.00 0.00 87 1002.5
20260509121333 12 213 0.0 3.2 0.00 0.00 0.00 87 1002.4
20260509120833 12 0 0.0 0.0 0.00 0.00 0.00 87 1002.4
20260509120333 12 0 0.0 0.0 0.00 0.00 0.00 87 1002.4
20260509115833 12 0 0.0 0.0 0.00 0.00 0.00 87 1002.2
20260509115333 12 218 0.0 4.8 0.00 0.00 0.00 87 1002.3
20260509114833 12 218 0.0 4.8 0.00 0.00 0.00 87 1002.2
20260509114333 12 282 0.0 3.2 0.00 0.00 0.00 87 1002.2
20260509113833 12 282 0.0 3.2 0.00 0.00 0.00 87 1002.2
20260509113333 12 0 0.0 0.0 0.00 0.00 0.00 87 1002.1
20260509112833 12 228 0.0 1.6 0.00 0.00 0.00 87 1002.0
20260509112333 12 228 0.0 4.8 0.00 0.00 0.00 87 1001.9
20260509111833 12 205 0.0 4.8 0.00 0.00 0.00 87 1002.0
20260509111333 12 212 0.0 4.8 0.00 0.00 0.00 87 1001.9
20260509110833 12 219 0.0 3.2 0.00 0.00 0.00 87 1001.8
20260509110333 12 219 0.0 1.6 0.00 0.00 0.00 87 1001.9
20260509105833 12 0 0.0 0.0 0.00 0.00 0.00 87 1001.8
20260509105333 12 196 0.0 1.6 0.00 0.00 0.00 87 1001.9
20260509104833 12 196 0.0 1.6 0.00 0.00 0.00 88 1001.7
20260509104333 12 196 0.0 1.6 0.00 0.00 0.00 88 1001.7
20260509103833 12 219 0.0 1.6 0.00 0.00 0.00 88 1001.6
20260509103333 12 227 0.0 3.2 0.00 0.00 0.00 89 1001.7
20260509102833 12 227 0.0 3.2 0.00 0.00 0.00 89 1001.7
20260509102333 12 247 0.0 1.6 0.00 0.00 0.00 90 1001.6
20260509101833 12 250 0.0 3.2 0.00 0.00 0.00 89 1001.6
20260509100833 12 218 0.0 1.6 0.00 0.00 0.00 90 1001.7
20260509100333 12 217 0.0 1.6 0.00 0.00 0.00 90 1001.8
20260509095833 12 217 0.0 4.8 0.00 0.00 0.00 90 1001.8
20260509095333 12 219 0.0 4.8 0.00 0.00 0.00 90 1001.8
20260509094833 12 0 0.0 0.0 0.00 0.00 0.00 90 1002.0
20260509094333 12 0 0.0 0.0 0.00 0.00 0.00 90 1002.1
20260509093833 12 0 0.0 0.0 0.00 0.00 0.00 90 1002.3
20260509093333 12 0 0.0 0.0 0.00 0.00 0.00 89 1002.4
20260509092833 12 0 0.0 0.0 0.00 0.00 0.00 89 1002.5
20260509092333 12 0 0.0 0.0 0.00 0.00 0.00 89 1002.5
20260509091833 12 0 0.0 0.0 0.00 0.00 0.00 89 1002.4
20260509091333 12 0 0.0 0.0 0.00 0.00 0.00 89 1002.5
20260509090833 12 0 0.0 0.0 0.00 0.00 0.00 89 1002.4
20260509090332 12 211 0.0 1.6 0.00 0.00 0.00 89 1002.4
20260509085833 12 211 0.0 1.6 0.00 0.00 0.00 89 1002.4
20260509085333 12 211 0.0 1.6 0.00 0.00 0.00 89 1002.5
20260509084833 12 0 0.0 0.0 0.00 0.00 0.00 89 1002.6
20260509084333 12 0 0.0 0.0 0.00 0.00 0.00 88 1002.6
20260509083833 12 0 0.0 0.0 0.00 0.00 0.00 88 1002.7
20260509083333 12 0 0.0 0.0 0.00 0.00 0.00 88 1002.6
20260509082333 12 0 0.0 0.0 0.00 0.00 0.00 88 1002.7
20260509081833 12 0 0.0 0.0 0.00 0.00 0.00 88 1002.6
20260509081332 12 0 0.0 0.0 0.00 0.00 0.00 87 1002.5
20260509080833 12 0 0.0 0.0 0.00 0.00 0.00 87 1002.6
20260509080333 12 0 0.0 0.0 0.00 0.00 0.00 87 1002.6
20260509075833 12 211 0.0 1.6 0.00 0.00 0.00 87 1002.6
20260509075333 12 211 0.0 1.6 0.00 0.00 0.00 87 1002.6
20260509074833 12 0 0.0 0.0 0.00 0.00 0.00 87 1002.7
20260509074333 12 0 0.0 0.0 0.00 0.00 0.00 86 1002.8
20260509073833 12 0 0.0 0.0 0.00 0.00 0.00 86 1002.8
20260509073333 12 0 0.0 0.0 0.00 0.00 0.00 86 1002.9
20260509072833 12 0 0.0 0.0 0.00 0.00 0.00 86 1003.0
20260509072333 12 0 0.0 0.0 0.00 0.00 0.00 86 1003.0
20260509071833 12 0 0.0 0.0 0.00 0.00 0.00 86 1003.1
20260509071333 12 210 0.0 3.2 0.00 0.00 0.00 86 1003.1
20260509070833 12 210 0.0 3.2 0.00 0.00 0.00 85 1003.2
20260509070333 13 0 0.0 0.0 0.00 0.00 0.00 85 1003.3
20260509065833 13 0 0.0 0.0 0.00 0.00 0.00 85 1003.4
20260509065333 13 0 0.0 0.0 0.00 0.00 0.00 85 1003.5
20260509064833 13 0 0.0 0.0 0.00 0.00 0.00 85 1003.4
20260509064333 13 261 0.0 1.6 0.00 0.00 0.00 85 1003.6
20260509063833 13 261 0.0 1.6 0.00 0.00 0.00 84 1003.7
20260509063333 13 262 0.0 1.6 0.00 0.00 0.00 85 1003.7
20260509062833 13 0 0.0 0.0 0.00 0.00 0.00 84 1003.7
20260509062333 13 267 0.0 4.8 0.00 0.00 0.00 84 1003.8
20260509061833 13 267 0.0 4.8 0.00 0.00 0.00 84 1003.8
20260509061333 13 235 0.0 3.2 0.00 0.00 0.00 84 1003.8
20260509060833 13 225 0.0 3.2 0.00 0.00 0.00 84 1003.8
20260509060333 13 225 0.0 3.2 0.00 0.00 0.00 84 1003.9
20260509055833 13 225 0.0 3.2 0.00 0.00 0.00 84 1004.0
20260509055333 13 225 0.0 1.6 0.00 0.00 0.00 84 1004.1
20260509054833 13 240 0.0 3.2 0.00 0.00 0.00 83 1004.1
20260509054333 13 210 0.0 3.2 0.00 0.00 0.00 83 1004.0
20260509053833 13 194 0.0 3.2 0.00 0.00 0.00 83 1004.1
20260509053333 13 0 0.0 0.0 0.00 0.00 0.00 83 1004.2
20260509052832 13 0 0.0 0.0 0.00 0.00 0.00 82 1004.2
20260509052333 13 0 0.0 0.0 0.00 0.00 0.00 82 1004.1
20260509051833 13 0 0.0 0.0 0.00 0.00 0.00 82 1004.1
20260509051333 13 0 0.0 0.0 0.00 0.00 0.00 82 1004.0
20260509050833 13 0 0.0 0.0 0.00 0.00 0.00 82 1003.9
20260509050333 13 204 0.0 3.2 0.00 0.00 0.00 82 1004.0
20260509045833 13 204 0.0 3.2 0.00 0.00 0.00 82 1004.2
20260509045333 13 244 0.0 3.2 0.00 0.00 0.00 82 1004.1
20260509044833 12 223 0.0 1.6 0.00 0.00 0.00 82 1003.9
20260509044333 12 223 0.0 1.6 0.00 0.00 0.00 82 1004.0
20260509043833 12 0 0.0 0.0 0.00 0.00 0.00 82 1004.1
20260509043333 12 0 0.0 0.0 0.00 0.00 0.00 82 1004.3
20260509042833 12 0 0.0 0.0 0.00 0.00 0.00 81 1004.4
20260509042333 12 0 0.0 0.0 0.00 0.00 0.00 81 1004.3
20260509041833 12 0 0.0 0.0 0.00 0.00 0.00 81 1004.2
20260509041333 12 0 0.0 0.0 0.00 0.00 0.00 81 1004.2
20260509040833 12 0 0.0 0.0 0.00 0.00 0.00 81 1004.2
20260509040333 11 0 0.0 0.0 0.00 0.00 0.00 81 1004.2
20260509035833 11 0 0.0 0.0 0.00 0.00 0.00 81 1004.3
20260509035333 11 0 0.0 0.0 0.00 0.00 0.00 81 1004.3
20260509034833 11 0 0.0 0.0 0.00 0.00 0.00 80 1004.4
20260509034333 11 0 0.0 0.0 0.00 0.00 0.00 79 1004.4
20260509033833 11 0 0.0 0.0 0.00 0.00 0.00 79 1004.5
20260509033333 11 0 0.0 0.0 0.00 0.00 0.00 79 1004.4
20260509032833 11 0 0.0 0.0 0.00 0.00 0.00 79 1004.4
20260509032333 11 0 0.0 0.0 0.00 0.00 0.00 79 1004.5
20260509031833 11 0 0.0 0.0 0.00 0.00 0.00 79 1004.5
20260509030833 11 0 0.0 0.0 0.00 0.00 0.00 78 1004.5
20260509030333 11 0 0.0 0.0 0.00 0.00 0.00 78 1004.5
20260509025833 11 0 0.0 0.0 0.00 0.00 0.00 78 1004.6
20260509025333 11 0 0.0 0.0 0.00 0.00 0.00 77 1004.6
20260509024833 11 0 0.0 0.0 0.00 0.00 0.00 77 1004.6
20260509024333 12 0 0.0 0.0 0.00 0.00 0.00 77 1004.7
20260509023833 12 0 0.0 0.0 0.00 0.00 0.00 77 1004.7
20260509023333 12 0 0.0 0.0 0.00 0.00 0.00 76 1004.7
20260509022833 12 0 0.0 0.0 0.00 0.00 0.00 76 1004.7
20260509022333 12 0 0.0 0.0 0.00 0.00 0.00 76 1004.8
20260509021833 12 0 0.0 0.0 0.00 0.00 0.00 75 1004.8
20260509021333 12 0 0.0 0.0 0.00 0.00 0.00 75 1004.9
20260509020833 12 0 0.0 0.0 0.00 0.00 0.00 74 1004.9
20260509020333 12 0 0.0 0.0 0.00 0.00 0.00 74 1005.0
20260509015833 12 0 0.0 0.0 0.00 0.00 0.00 73 1005.0
20260509015333 12 0 0.0 0.0 0.00 0.00 0.00 72 1004.9
20260509014833 12 0 0.0 0.0 0.00 0.00 0.00 72 1004.9
20260509014333 12 0 0.0 0.0 0.00 0.00 0.00 71 1004.9
20260509013833 12 0 0.0 0.0 0.00 0.00 0.00 70 1004.9
20260509013333 12 0 0.0 0.0 0.00 0.00 0.00 70 1005.0
20260509012833 12 0 0.0 0.0 0.00 0.00 0.00 69 1004.9
20260509012333 12 0 0.0 0.0 0.00 0.00 0.00 68 1004.9
20260509011833 12 0 0.0 0.0 0.00 0.00 0.00 68 1004.8
20260509011333 12 0 0.0 0.0 0.00 0.00 0.00 67 1004.9
20260509010833 13 0 0.0 0.0 0.00 0.00 0.00 66 1004.9
20260509010332 13 223 0.0 1.6 0.00 0.00 0.00 66 1004.9
20260509005833 13 223 0.0 1.6 0.00 0.00 0.00 65 1004.9
20260509005333 13 223 0.0 1.6 0.00 0.00 0.00 64 1004.9
20260509004833 13 0 0.0 0.0 0.00 0.00 0.00 63 1004.9
20260509004333 13 0 0.0 0.0 0.00 0.00 0.00 63 1004.8
20260509003833 13 0 0.0 0.0 0.00 0.00 0.00 63 1004.8
20260509003333 13 0 0.0 0.0 0.00 0.00 0.00 62 1004.8
20260509002833 13 0 0.0 0.0 0.00 0.00 0.00 62 1004.9
20260509002333 13 0 0.0 0.0 0.00 0.00 0.00 60 1005.0
20260509001833 14 0 0.0 0.0 0.00 0.00 0.00 60 1005.1
20260509001333 14 0 0.0 0.0 0.00 0.00 0.00 60 1005.2
20260509000833 14 0 0.0 0.0 0.00 0.00 0.00 59 1005.2
20260509000333 14 0 0.0 0.0 0.00 0.00 0.00 59 1005.1
20260508235833 14 0 0.0 0.0 0.00 0.00 0.00 58 1005.2
20260508235333 15 0 0.0 0.0 0.00 0.00 0.00 58 1005.3
20260508234833 15 0 0.0 0.0 0.00 0.00 0.00 58 1005.3
20260508234333 15 0 0.0 0.0 0.00 0.00 0.00 56 1005.3
20260508233833 15 0 0.0 0.0 0.00 0.00 0.00 56 1005.4
20260508233332 15 0 0.0 0.0 0.00 0.00 0.00 56 1005.4
20260508232832 15 0 0.0 0.0 0.00 0.00 0.00 56 1005.3
20260508232333 15 0 0.0 0.0 0.00 0.00 0.00 56 1005.4
20260508231832 15 0 0.0 0.0 0.00 0.00 0.00 56 1005.4
20260508231333 15 0 0.0 0.0 0.00 0.00 0.00 56 1005.5
20260508230833 15 0 0.0 0.0 0.00 0.00 0.00 56 1005.5
20260508230332 15 0 0.0 0.0 0.00 0.00 0.00 56 1005.5
20260508225833 15 0 0.0 0.0 0.00 0.00 0.00 56 1005.6
20260508225333 15 119 0.0 1.6 0.00 0.00 0.00 56 1005.6
20260508224833 15 119 0.0 1.6 0.00 0.00 0.00 55 1005.7
20260508224333 15 116 0.0 4.8 0.00 0.00 0.00 54 1005.6
20260508223833 15 108 0.0 4.8 0.00 0.00 0.00 54 1005.6
20260508223332 15 58 0.0 1.6 0.00 0.00 0.00 53 1005.6
20260508222833 15 51 0.0 1.6 0.00 0.00 0.00 52 1005.7
20260508222333 15 51 0.0 3.2 0.00 0.00 0.00 51 1005.7
20260508221833 15 346 0.0 3.2 0.00 0.00 0.00 49 1005.7
20260508221333 15 60 0.0 3.2 0.00 0.00 0.00 50 1005.8
20260508220833 16 0 0.0 0.0 0.00 0.00 0.00 48 1005.8
20260508220333 16 186 0.0 3.2 0.00 0.00 0.00 47 1005.8
20260508215333 16 156 0.0 1.6 0.00 0.00 0.00 47 1005.9
20260508214833 16 156 0.0 6.4 0.00 0.00 0.00 45 1005.8
20260508214333 16 218 0.0 6.4 0.00 0.00 0.00 45 1005.9
20260508213833 16 151 1.6 6.4 0.00 0.00 0.00 43 1005.9
20260508213333 16 148 1.6 8.0 0.00 0.03 0.00 42 1006.0
20260508212833 16 168 1.6 8.0 0.00 0.03 0.00 41 1006.0
20260508212333 16 127 1.6 8.0 0.00 0.05 0.00 43 1006.1
20260508211833 16 158 1.6 8.0 0.00 0.08 0.00 41 1006.2
20260508211333 16 109 1.6 8.0 0.00 0.08 0.00 41 1006.2
20260508210833 16 175 1.6 8.0 0.00 0.08 0.00 43 1006.2
20260508210333 17 171 1.6 8.0 0.00 0.10 0.00 43 1006.1
20260508205833 17 161 1.6 8.0 0.00 0.10 0.00 44 1006.2
20260508205333 17 103 1.6 8.0 0.00 0.13 0.00 43 1006.1
20260508204833 17 160 1.6 11.3 0.00 0.13 0.00 43 1006.3
20260508204333 17 163 3.2 11.3 0.00 0.13 0.00 42 1006.3
20260508203833 17 177 1.6 9.7 0.00 0.13 0.00 41 1006.4
20260508203333 17 245 0.0 6.4 0.00 0.13 0.00 40 1006.5
20260508202833 17 197 1.6 12.9 0.00 0.13 0.00 42 1006.6
20260508202333 17 148 1.6 12.9 0.00 0.13 0.00 39 1006.7
20260508201833 17 175 0.0 6.4 0.00 0.13 0.00 41 1006.7
20260508201333 17 184 1.6 12.9 0.00 0.13 0.00 42 1006.8
20260508200833 17 144 1.6 12.9 0.00 0.13 0.00 40 1006.9
20260508200333 17 140 1.6 6.4 0.00 0.13 0.00 41 1007.0
20260508195833 17 219 1.6 6.4 0.00 0.13 0.00 44 1007.1
20260508195333 17 178 0.0 6.4 0.00 0.13 0.00 45 1007.1
20260508194833 17 165 1.6 6.4 0.00 0.13 0.00 43 1007.2
20260508194333 17 157 1.6 8.0 0.00 0.13 0.00 46 1007.2
20260508193833 17 117 3.2 9.7 0.00 0.13 0.00 47 1007.3
20260508193333 17 128 1.6 9.7 0.00 0.13 0.00 51 1007.4
20260508192833 17 212 0.0 8.0 0.00 0.13 0.00 50 1007.4
20260508192333 17 179 0.0 4.8 0.00 0.13 0.00 53 1007.5
20260508191832 16 360 0.0 11.3 0.00 0.13 0.00 53 1007.4
20260508191333 16 108 1.6 11.3 0.00 0.13 0.00 52 1007.5
20260508190833 16 155 1.6 9.7 0.00 0.13 0.00 51 1007.6
20260508190333 17 170 1.6 9.7 0.00 0.13 0.00 52 1007.7
20260508185833 17 158 1.6 9.7 0.00 0.13 0.00 56 1007.8
20260508185333 17 168 1.6 8.0 0.00 0.13 0.00 55 1007.9
20260508184833 17 45 0.0 6.4 0.00 0.13 0.00 60 1008.0
20260508184333 17 55 1.6 6.4 0.00 0.13 0.00 58 1008.0
20260508183833 17 38 0.0 4.8 0.00 0.13 0.00 62 1008.1
20260508183333 17 356 0.0 4.8 0.00 0.13 0.00 61 1008.1
20260508182833 17 294 0.0 1.6 0.00 0.13 0.00 62 1008.2
20260508182333 16 294 0.0 1.6 0.00 0.13 0.00 63 1008.2
20260508181833 16 84 0.0 1.6 0.00 0.13 0.00 65 1008.2
20260508181333 16 158 0.0 1.6 0.00 0.13 0.00 66 1008.3
20260508180833 16 355 0.0 4.8 0.00 0.13 0.00 67 1008.4
20260508180333 16 92 0.0 4.8 0.00 0.13 0.00 65 1008.4
20260508175833 16 17 0.0 4.8 0.00 0.13 0.00 64 1008.5
20260508175333 16 17 0.0 4.8 0.00 0.13 0.00 61 1008.5
20260508174833 16 152 1.6 4.8 0.00 0.13 0.00 65 1008.6
20260508174333 16 20 0.0 1.6 0.00 0.13 0.00 66 1008.6
20260508173833 16 189 0.0 1.6 0.00 0.13 0.00 68 1008.8
20260508173333 16 189 0.0 3.2 0.00 0.13 0.00 67 1008.8
20260508172833 16 127 0.0 9.7 0.00 0.13 0.00 68 1009.0
20260508172333 16 165 0.0 9.7 0.00 0.13 0.00 68 1009.0
20260508171833 16 181 0.0 6.4 0.00 0.13 0.00 70 1009.1
20260508171333 16 284 0.0 6.4 0.00 0.13 0.00 71 1009.2
20260508170833 16 126 0.0 1.6 0.00 0.13 0.00 70 1009.3
20260508170333 15 153 0.0 1.6 0.00 0.13 0.00 69 1009.3
20260508165832 15 153 0.0 1.6 0.00 0.13 0.00 69 1009.3
20260508165333 15 142 0.0 1.6 0.00 0.13 0.00 69 1009.4
20260508164833 15 142 0.0 1.6 0.00 0.13 0.00 70 1009.5
20260508164333 15 0 0.0 0.0 0.00 0.13 0.00 68 1009.6
20260508163833 15 0 0.0 0.0 0.00 0.13 0.00 71 1009.7
20260508163333 15 0 0.0 0.0 0.00 0.13 0.00 71 1009.9
20260508162833 15 171 0.0 1.6 0.00 0.13 0.00 68 1009.9
20260508162333 15 171 0.0 1.6 0.00 0.13 0.00 72 1009.9